星链-36664(STARLINK-36664)

导读

STARLINK-36664(NORAD编号68965)是美国SpaceX公司星链(Starlink)星座的一颗低轨通信卫星,属于星链星座大规模组网部署中的一员。星链项目旨在构建全球卫星互联网,为地面偏远地区提供高速低延迟网络接入。该卫星运行于近地轨道,2026年SpaceX计划将包括该卫星在内的约4400颗星链卫星轨道高度从550公里降至480公里,提升轨道运行安全性,降低碰撞风险,避免太空碎片产生,应对近地轨道日益拥挤的问题。卫星搭载自主防撞系统,可自动规避空间碎片与其他航天器,保障星座运行安全。

基本信息
目录编号:
68965
目录名称:
STARLINK-36664
国际标识:
2026-099Q
轨道中心:
EARTH
卫星名称:
星链-36664
卫星全名:
星链-36664(STARLINK-36664)
卫星状态:
在轨 (已飞行88 天)
发射日期:
2026-05-01 UTC
国别 :
美国 (US)
星等 :
--
轨道信息
数据来源 国际轨道数据
星历时间: 2026-07-27T17:14:14+0800
14小时前
查看轨道信息
半长轴: 6840.352km
偏心率: 0.0014846
轨道倾角: 53.155°
近地点辐角 125.159°
升交点赤经 333.376°
平近点角 235.080°
近地点: 452.059km
远地点: 472.371km
周期: 93.838分钟
每日圈数: 15.345643
详细信息
固有亮度:
5
最大亮度:
2.5
卫星平台:
Starlink V1.0
覆盖范围:
全球
运营商:
太空探索技术公司
运营商所在国:
美国
制造商(研发单位):
太空探索技术公司
制造商所在国:
美国
使用方式:
暂无
卫星简介
Starlink 计划是 SpaceX 推出的全球卫星互联网项目,通过发射低轨道卫星,为全球尤其是偏远地区提供高速、低延迟的互联网服务。自 2019 年起,Starlink 已部署数千颗卫星,旨在缩小全球数字鸿沟,推动互联网普及。该项目还为军事、航空等行业提供通信支持,带来广泛经济效益。
2D轨道图
3D轨道图
轨道高度分析图
轨道倾角分析图
轨道综合分析图
查看轨道综合分析图